Location: Bangkok
(13.7500°N, 100.5170°E)
Time: 05:39:32
(UTC+07:00)

Hubble Space Telescope - Visible Passes

Search period start: 31 August 2016 00:00
Search period end: 10 September 2016 00:00
Orbit: 539 x 542 km, 28.5° (Epoch: 29 August)

Date Brightness Start Highest point End Pass type
(mag) Time Alt. Az. Time Alt. Az. Time Alt. Az.
31 Aug 0.6 19:55:46 10° WNW 19:59:56 83° SSW 20:00:05 80° SSE visible
01 Sep 1.1 19:46:04 10° WNW 19:50:10 59° SSW 19:51:04 46° SSE visible
02 Sep 1.7 19:36:28 10° W 19:40:24 41° SSW 19:42:07 27° SSE visible
03 Sep 2.3 19:27:00 10° W 19:30:37 29° SSW 19:33:13 16° SSE visible
04 Sep 2.8 19:17:41 10° W 19:20:50 21° SSW 19:24:00 10° SSE visible
05 Sep 3.3 19:08:37 10° WSW 19:11:04 15° SSW 19:13:30 10° S visible
06 Sep 3.6 19:00:24 10° SW 19:01:17 11° SSW 19:02:10 10° SSW visible
